GW5240 Weather Reports


Display with metric or nautical units.
time (UTC)temp
F
wind
direction
speed
MPH
gust
MPH
rain 1hr
in
rain 24hr
in
rain mn
in
humidity
%
barometer
mb
20260507010116 44 166 0.0 2.0 0.00 0.00 0.00 49 1015.3
20260507005613 44 179 0.0 0.0 0.00 0.00 0.00 48 1015.3
20260507005109 45 168 1.0 2.0 0.00 0.00 0.00 47 1015.5
20260507004606 45 179 2.0 3.0 0.00 0.00 0.00 46 1015.3
20260507004104 46 157 2.0 3.0 0.00 0.00 0.00 45 1015.4
20260507003600 46 158 1.0 2.0 0.00 0.00 0.00 45 1015.3
20260507003055 46 7 4.0 5.0 0.00 0.00 0.00 46 1015.6
20260507002552 45 323 2.0 5.0 0.00 0.00 0.00 46 1015.5
20260507002047 45 202 1.0 2.0 0.00 0.00 0.00 46 1015.4
20260507001544 45 172 0.0 2.0 0.00 0.00 0.00 47 1015.4
20260507001042 46 170 2.0 2.0 0.00 0.00 0.00 46 1015.6
20260507000538 46 89 2.0 5.0 0.00 0.00 0.00 46 1015.4
20260507000033 46 349 1.0 3.0 0.00 0.00 0.00 47 1015.4
20260506235531 46 168 0.0 0.0 0.00 0.00 0.00 47 1015.5
20260506235021 46 183 1.0 2.0 0.00 0.00 0.00 47 1015.5
20260506234519 46 151 0.0 2.0 0.00 0.00 0.00 47 1015.4
20260506234016 46 188 3.0 3.0 0.00 0.00 0.00 46 1015.5
20260506233512 46 157 3.0 5.0 0.00 0.00 0.00 46 1015.6
20260506233009 46 91 3.0 3.0 0.00 0.00 0.00 45 1015.5
20260506232506 46 250 2.0 3.0 0.00 0.00 0.00 45 1015.5
20260506232001 46 200 0.0 0.0 0.00 0.00 0.00 47 1015.7
20260506231459 46 187 0.0 2.0 0.00 0.00 0.00 46 1015.7
20260506230956 46 224 4.0 5.0 0.00 0.00 0.00 46 1015.8
20260506230452 46 330 5.0 7.0 0.00 0.00 0.00 46 1015.7
20260506225949 46 346 5.0 7.0 0.00 0.00 0.00 46 1015.6
20260506225447 46 199 2.0 2.0 0.00 0.00 0.00 46 1015.7
20260506224943 46 351 4.0 5.0 0.00 0.00 0.00 46 1015.7
20260506224440 46 165 4.0 7.0 0.00 0.00 0.00 46 1015.9
20260506223936 47 175 1.0 2.0 0.00 0.00 0.00 46 1015.8
20260506223432 47 181 1.0 2.0 0.00 0.00 0.00 46 1015.7
20260506222929 46 173 1.0 2.0 0.00 0.00 0.00 48 1015.7
20260506222425 46 176 2.0 2.0 0.00 0.00 0.00 46 1015.7
20260506221923 46 180 1.0 2.0 0.00 0.00 0.00 46 1015.8
20260506221420 46 197 1.0 2.0 0.00 0.00 0.00 47 1015.8
20260506220918 46 317 3.0 5.0 0.00 0.00 0.00 45 1015.7
20260506220413 46 150 2.0 3.0 0.00 0.00 0.00 46 1015.8
20260506215910 46 355 4.0 5.0 0.00 0.00 0.00 46 1015.8
20260506215406 46 172 2.0 2.0 0.00 0.00 0.00 48 1016.0
20260506214902 46 240 4.0 7.0 0.00 0.00 0.00 46 1016.0
20260506214359 46 177 1.0 2.0 0.00 0.00 0.00 46 1016.1
20260506213857 46 192 2.0 3.0 0.00 0.00 0.00 46 1016.0
20260506213354 46 196 2.0 3.0 0.00 0.00 0.00 46 1016.2
20260506212851 47 158 2.0 3.0 0.00 0.00 0.00 45 1016.3
20260506212346 47 236 0.0 2.0 0.00 0.00 0.00 46 1016.2
20260506211841 46 180 2.0 2.0 0.00 0.00 0.00 46 1016.2
20260506211338 46 181 0.0 0.0 0.00 0.00 0.00 47 1016.3
20260506210835 46 258 3.0 5.0 0.00 0.00 0.00 47 1016.1
20260506210332 46 259 2.0 3.0 0.00 0.00 0.00 47 1016.2
20260506205829 46 192 1.0 2.0 0.00 0.00 0.00 49 1016.4
20260506205325 46 348 3.0 3.0 0.00 0.00 0.00 48 1016.4
20260506204822 45 358 6.0 9.0 0.00 0.00 0.00 48 1016.5
20260506204320 45 26 2.0 5.0 0.00 0.00 0.00 48 1016.4
20260506203817 46 193 2.0 3.0 0.00 0.00 0.00 48 1016.5
20260506203314 46 168 2.0 3.0 0.00 0.00 0.00 47 1016.4
20260506202811 45 80 4.0 5.0 0.00 0.00 0.00 47 1016.3
20260506202308 46 274 2.0 3.0 0.00 0.00 0.00 47 1016.4
20260506201804 45 169 2.0 2.0 0.00 0.00 0.00 48 1016.6
20260506201302 45 311 2.0 3.0 0.00 0.00 0.00 49 1016.6
20260506200759 46 316 3.0 5.0 0.00 0.00 0.00 47 1016.6
20260506200255 46 6 4.0 5.0 0.00 0.00 0.00 49 1016.3
20260506195751 45 177 2.0 2.0 0.00 0.00 0.00 48 1016.5
20260506195248 45 243 2.0 3.0 0.00 0.00 0.00 49 1016.6
20260506194745 45 173 2.0 2.0 0.00 0.00 0.00 50 1016.5
20260506194241 44 359 3.0 5.0 0.00 0.00 0.00 50 1016.5
20260506193739 44 186 1.0 2.0 0.00 0.00 0.00 51 1016.6
20260506193236 44 250 2.0 3.0 0.00 0.00 0.00 49 1016.6
20260506192732 44 169 4.0 7.0 0.00 0.00 0.00 49 1016.6
20260506192229 44 269 2.0 3.0 0.00 0.00 0.00 49 1016.8
20260506191726 44 235 2.0 3.0 0.00 0.00 0.00 49 1016.6
20260506191222 44 7 2.0 3.0 0.00 0.00 0.00 48 1016.6
20260506190719 44 18 3.0 5.0 0.00 0.00 0.00 49 1016.7
20260506190216 44 167 0.0 0.0 0.00 0.00 0.00 49 1016.5
20260506185713 44 168 3.0 3.0 0.00 0.00 0.00 48 1016.5
20260506185209 44 232 1.0 2.0 0.00 0.00 0.00 48 1016.5
20260506184707 45 330 5.0 9.0 0.00 0.00 0.00 48 1016.6
20260506184204 45 185 0.0 0.0 0.00 0.00 0.00 48 1016.5
20260506183701 44 48 4.0 5.0 0.00 0.00 0.00 48 1016.5
20260506183156 43 134 1.0 2.0 0.00 0.00 0.00 50 1016.8
20260506182654 43 139 0.0 2.0 0.00 0.00 0.00 50 1016.7
20260506182152 43 312 3.0 5.0 0.00 0.00 0.00 48 1016.6
20260506181649 44 269 5.0 7.0 0.00 0.00 0.00 48 1016.7
20260506181146 44 341 5.0 7.0 0.00 0.00 0.00 48 1016.9
20260506180643 44 73 3.0 5.0 0.00 0.00 0.00 48 1016.5
20260506180139 44 159 2.0 2.0 0.00 0.00 0.00 50 1016.7
20260506175636 43 183 2.0 2.0 0.00 0.00 0.00 50 1016.7
20260506175132 43 247 2.0 3.0 0.00 0.00 0.00 49 1016.9
20260506174631 43 296 5.0 7.0 0.00 0.00 0.00 49 1016.9
20260506174127 43 205 2.0 2.0 0.00 0.00 0.00 50 1016.8
20260506173625 43 31 4.0 5.0 0.00 0.00 0.00 50 1016.9
20260506173121 43 337 2.0 3.0 0.00 0.00 0.00 49 1017.1
20260506172619 43 168 2.0 3.0 0.00 0.00 0.00 49 1016.9
20260506172115 43 39 2.0 3.0 0.00 0.00 0.00 51 1016.9
20260506171613 43 162 3.0 5.0 0.00 0.00 0.00 49 1017.1
20260506171111 43 32 2.0 3.0 0.00 0.00 0.00 49 1017.1
20260506170608 42 258 1.0 2.0 0.00 0.00 0.00 51 1017.3
20260506170105 42 248 3.0 5.0 0.00 0.00 0.00 51 1017.2
20260506165603 43 203 3.0 5.0 0.00 0.00 0.00 49 1017.3
20260506165059 42 183 1.0 2.0 0.00 0.00 0.00 51 1017.4
20260506164556 42 142 1.0 2.0 0.00 0.00 0.00 52 1017.3
20260506164053 42 14 3.0 5.0 0.00 0.00 0.00 50 1017.2
20260506163549 42 101 4.0 5.0 0.00 0.00 0.00 50 1017.3
20260506163046 42 201 2.0 2.0 0.00 0.00 0.00 51 1017.2
20260506162542 42 352 4.0 9.0 0.00 0.00 0.00 50 1017.2
20260506162039 42 14 5.0 10.0 0.00 0.00 0.00 50 1017.2
20260506161536 42 322 3.0 7.0 0.00 0.00 0.00 51 1017.2
20260506161033 42 347 6.0 10.0 0.00 0.00 0.00 50 1017.2
20260506160531 42 283 4.0 7.0 0.00 0.00 0.00 49 1017.3
20260506160028 42 59 2.0 2.0 0.00 0.00 0.00 50 1017.1
20260506155526 42 129 7.0 12.0 0.00 0.00 0.00 49 1017.1
20260506153657 43 82 8.0 10.0 0.00 0.00 0.00 48 1017.1
20260506153154 43 83 6.0 14.0 0.00 0.00 0.00 50 1016.8
20260506152651 43 305 3.0 7.0 0.00 0.00 0.00 49 1016.9
20260506152149 43 17 6.0 7.0 0.00 0.00 0.00 49 1016.9
20260506151648 43 270 2.0 2.0 0.00 0.00 0.00 50 1017.2
20260506151144 42 193 1.0 2.0 0.00 0.00 0.00 52 1017.1
20260506150641 42 229 4.0 7.0 0.00 0.00 0.00 51 1016.9
20260506150138 42 130 7.0 9.0 0.00 0.00 0.00 50 1017.3
20260506145635 41 30 4.0 7.0 0.00 0.00 0.00 51 1017.1
20260506145131 41 225 5.0 7.0 0.00 0.00 0.00 53 1017.1
20260506144629 40 111 0.0 2.0 0.00 0.00 0.00 54 1017.1
20260506144125 40 314 7.0 10.0 0.00 0.00 0.00 52 1017.2
20260506143623 40 337 5.0 10.0 0.00 0.00 0.00 52 1017.2
20260506143121 40 182 1.0 2.0 0.00 0.00 0.00 52 1017.2
20260506142619 40 346 6.0 12.0 0.00 0.00 0.00 52 1017.3
20260506142117 40 181 1.0 2.0 0.00 0.00 0.00 53 1017.1
20260506141614 40 303 5.0 9.0 0.00 0.00 0.00 53 1017.2
20260506141112 41 308 7.0 10.0 0.00 0.00 0.00 51 1017.1
20260506140610 40 179 1.0 2.0 0.00 0.00 0.00 53 1017.1
20260506140107 40 5 2.0 3.0 0.00 0.00 0.00 54 1017.2
20260506135603 40 262 2.0 2.0 0.00 0.00 0.00 54 1016.9
20260506135100 40 341 2.0 3.0 0.00 0.00 0.00 53 1016.8
20260506134556 40 274 3.0 3.0 0.00 0.00 0.00 54 1016.8
20260506134052 40 186 3.0 3.0 0.00 0.00 0.00 54 1016.8
20260506133549 40 176 1.0 2.0 0.00 0.00 0.00 54 1016.9
20260506133046 40 181 0.0 0.0 0.00 0.00 0.00 54 1016.7
20260506132544 40 259 2.0 3.0 0.00 0.00 0.00 54 1016.6
20260506132041 40 188 0.0 2.0 0.00 0.00 0.00 55 1016.6
20260506131538 40 289 2.0 2.0 0.00 0.00 0.00 55 1016.6
20260506131034 39 181 2.0 2.0 0.00 0.00 0.00 56 1016.5
20260506130531 39 301 3.0 3.0 0.00 0.00 0.00 56 1016.8
20260506130029 39 178 1.0 2.0 0.00 0.00 0.00 57 1016.4
20260506125527 38 48 3.0 3.0 0.00 0.00 0.00 58 1016.3
20260506125024 38 126 2.0 3.0 0.00 0.00 0.00 58 1016.4
20260506124522 38 318 4.0 5.0 0.00 0.00 0.00 59 1016.2
20260506124020 37 158 0.0 0.0 0.00 0.00 0.00 61 1016.2
20260506123517 37 18 3.0 5.0 0.00 0.00 0.00 61 1016.1
20260506123015 37 315 3.0 3.0 0.00 0.00 0.00 61 1016.2
20260506122512 37 337 3.0 5.0 0.00 0.00 0.00 62 1016.0
20260506122010 36 145 0.0 0.0 0.00 0.00 0.00 63 1016.1
20260506121507 35 179 1.0 2.0 0.00 0.00 0.00 64 1015.9
20260506121003 35 154 2.0 3.0 0.00 0.00 0.00 65 1015.8
20260506120501 35 168 1.0 2.0 0.00 0.00 0.00 65 1015.7
20260506115958 35 221 0.0 2.0 0.00 0.00 0.00 66 1015.7
20260506115456 35 238 2.0 3.0 0.00 0.00 0.00 67 1015.5
20260506114954 34 243 2.0 3.0 0.00 0.00 0.00 68 1015.5
20260506114451 34 1 1.0 2.0 0.00 0.00 0.00 69 1015.4
20260506113950 33 339 3.0 5.0 0.00 0.00 0.00 70 1015.4
20260506113447 33 269 1.0 2.0 0.00 0.00 0.00 70 1015.4
20260506112943 33 162 0.0 2.0 0.00 0.00 0.00 71 1015.4
20260506112441 33 205 1.0 2.0 0.00 0.00 0.00 70 1015.2
20260506111938 33 228 2.0 2.0 0.00 0.00 0.00 71 1015.1
20260506111437 32 186 0.0 0.0 0.00 0.00 0.00 72 1015.2
20260506110933 32 188 0.0 0.0 0.00 0.00 0.00 71 1015.4
20260506110431 32 172 0.0 0.0 0.00 0.00 0.00 71 1015.6
20260506105927 32 167 0.0 0.0 0.00 0.00 0.00 71 1015.4
20260506105424 32 180 0.0 0.0 0.00 0.00 0.00 73 1015.4
20260506104921 31 162 0.0 2.0 0.00 0.00 0.00 75 1015.6
20260506104419 30 170 0.0 0.0 0.00 0.00 0.00 75 1015.4
20260506103917 30 171 0.0 0.0 0.00 0.00 0.00 75 1015.5
20260506103414 30 167 0.0 0.0 0.00 0.00 0.00 74 1015.5
20260506102911 30 173 0.0 0.0 0.00 0.00 0.00 74 1015.3
20260506102409 30 173 0.0 0.0 0.00 0.00 0.00 73 1015.3
20260506101906 30 173 0.0 0.0 0.00 0.00 0.00 74 1015.0
20260506101402 30 173 0.0 0.0 0.00 0.00 0.00 75 1015.0
20260506100859 30 172 0.0 0.0 0.00 0.00 0.00 74 1014.8
20260506100358 30 170 0.0 0.0 0.00 0.00 0.00 74 1014.9
20260506095856 30 170 0.0 0.0 0.00 0.00 0.00 74 1015.0
20260506095354 30 168 0.0 0.0 0.00 0.00 0.00 74 1015.2
20260506094850 30 168 0.0 0.0 0.00 0.00 0.00 74 1014.9
20260506094349 30 176 0.0 0.0 0.00 0.00 0.00 75 1014.9
20260506093846 30 175 0.0 0.0 0.00 0.00 0.00 75 1014.7
20260506093343 30 177 0.0 0.0 0.00 0.00 0.00 74 1014.9
20260506092841 30 177 0.0 0.0 0.00 0.00 0.00 74 1014.9
20260506092339 30 171 0.0 0.0 0.00 0.00 0.00 74 1015.0
20260506091835 30 172 0.0 0.0 0.00 0.00 0.00 74 1014.9
20260506091333 30 172 0.0 0.0 0.00 0.00 0.00 75 1015.1
20260506090830 30 172 0.0 0.0 0.00 0.00 0.00 75 1014.9
20260506090328 30 172 0.0 0.0 0.00 0.00 0.00 75 1015.0
20260506085824 30 172 0.0 0.0 0.00 0.00 0.00 74 1014.9
20260506085320 30 172 0.0 0.0 0.00 0.00 0.00 73 1014.7
20260506084817 30 172 0.0 0.0 0.00 0.00 0.00 73 1014.6
20260506084314 30 172 0.0 0.0 0.00 0.00 0.00 71 1014.7
20260506083810 31 172 0.0 0.0 0.00 0.00 0.00 70 1014.6
20260506083308 31 172 0.0 0.0 0.00 0.00 0.00 70 1014.6
20260506082806 32 172 0.0 0.0 0.00 0.00 0.00 70 1014.6
20260506082304 32 172 0.0 0.0 0.00 0.00 0.00 70 1014.4
20260506081758 32 172 0.0 0.0 0.00 0.00 0.00 69 1014.6
20260506081256 32 172 0.0 0.0 0.00 0.00 0.00 68 1014.7
20260506080754 32 172 0.0 0.0 0.00 0.00 0.00 68 1014.8
20260506080250 32 172 0.0 0.0 0.00 0.00 0.00 68 1014.8
20260506073234 34 203 0.0 2.0 0.00 0.00 0.00 63 1014.5
20260506072731 35 177 0.0 0.0 0.00 0.00 0.00 63 1014.3
20260506072228 35 177 0.0 0.0 0.00 0.00 0.00 62 1014.2
20260506071726 35 180 0.0 2.0 0.00 0.00 0.00 62 1014.3
20260506071224 35 186 0.0 0.0 0.00 0.00 0.00 61 1014.2
20260506070720 36 180 0.0 0.0 0.00 0.00 0.00 61 1014.5
20260506070217 36 176 0.0 0.0 0.00 0.00 0.00 60 1014.5
20260506062154 37 181 0.0 0.0 0.00 0.00 0.00 57 1014.2
20260506061650 37 144 1.0 2.0 0.00 0.00 0.00 57 1014.4
20260506061148 37 181 0.0 2.0 0.00 0.00 0.00 57 1014.4
20260506060646 38 169 0.0 0.0 0.00 0.00 0.00 56 1014.4
20260506060143 38 180 2.0 3.0 0.00 0.00 0.00 55 1014.3
20260506051115 39 164 1.0 2.0 0.00 0.00 0.00 55 1014.0
20260506050613 39 198 0.0 2.0 0.00 0.00 0.00 54 1013.9
20260506050110 39 341 1.0 2.0 0.00 0.00 0.00 55 1013.7
20260506045103 39 282 0.0 2.0 0.00 0.00 0.00 54 1013.8
20260506044602 40 181 0.0 0.0 0.00 0.00 0.00 54 1013.7
20260506044058 40 238 1.0 2.0 0.00 0.00 0.00 54 1013.8
20260506043555 40 117 2.0 2.0 0.00 0.00 0.00 53 1013.7
20260506043053 40 175 0.0 0.0 0.00 0.00 0.00 54 1013.5
20260506042552 40 179 2.0 3.0 0.00 0.00 0.00 54 1013.6
20260506042049 40 183 1.0 2.0 0.00 0.00 0.00 53 1013.6
20260506041548 40 214 0.0 2.0 0.00 0.00 0.00 54 1013.6
20260506041044 41 273 2.0 3.0 0.00 0.00 0.00 53 1013.7
20260506040542 41 175 0.0 2.0 0.00 0.00 0.00 51 1013.6
20260506040038 41 327 3.0 3.0 0.00 0.00 0.00 51 1013.7
20260506035535 41 178 2.0 3.0 0.00 0.00 0.00 51 1013.8
20260506035032 41 307 4.0 5.0 0.00 0.00 0.00 51 1013.7
20260506034529 41 160 1.0 2.0 0.00 0.00 0.00 51 1013.4
20260506034026 42 160 2.0 2.0 0.00 0.00 0.00 50 1013.7
20260506033523 42 156 0.0 2.0 0.00 0.00 0.00 51 1013.4
20260506033021 42 25 2.0 3.0 0.00 0.00 0.00 50 1013.6
20260506032518 42 180 0.0 0.0 0.00 0.00 0.00 50 1013.4
20260506032014 43 143 4.0 5.0 0.00 0.00 0.00 50 1013.3
20260506031512 43 298 2.0 3.0 0.00 0.00 0.00 50 1013.4
20260506031009 43 168 2.0 3.0 0.00 0.00 0.00 50 1013.5
20260506030507 43 244 2.0 3.0 0.00 0.00 0.00 50 1013.5
20260506030004 43 134 0.0 2.0 0.00 0.00 0.00 50 1013.2
20260506025500 43 15 2.0 3.0 0.00 0.00 0.00 50 1013.2
20260506024957 43 347 4.0 7.0 0.00 0.00 0.00 50 1012.9
20260506024454 43 173 0.0 0.0 0.00 0.00 0.00 50 1012.8
20260506023949 43 205 1.0 2.0 0.00 0.00 0.00 49 1012.7
20260506023447 44 151 1.0 2.0 0.00 0.00 0.00 49 1012.7
20260506022943 44 194 1.0 2.0 0.00 0.00 0.00 48 1012.4
20260506022441 44 211 0.0 2.0 0.00 0.00 0.00 48 1012.4
20260506021939 44 210 0.0 0.0 0.00 0.00 0.00 47 1012.5
20260506021436 44 192 3.0 5.0 0.00 0.00 0.00 46 1012.4
20260506020933 44 234 2.0 3.0 0.00 0.00 0.00 46 1012.2
20260506020431 45 138 0.0 0.0 0.00 0.00 0.00 46 1012.2
20260506015927 45 191 2.0 3.0 0.00 0.00 0.00 45 1012.1
20260506015425 45 273 3.0 3.0 0.00 0.00 0.00 45 1012.0
20260506014922 45 280 3.0 3.0 0.00 0.00 0.00 45 1012.0
20260506014419 45 264 2.0 2.0 0.00 0.00 0.00 44 1012.1
20260506013915 46 274 5.0 7.0 0.00 0.00 0.00 45 1012.1
20260506013414 46 264 1.0 2.0 0.00 0.00 0.00 44 1011.7
20260506012909 46 347 3.0 5.0 0.00 0.00 0.00 44 1011.7
20260506012406 46 87 4.0 5.0 0.00 0.00 0.00 44 1011.6
20260506011903 46 184 0.0 2.0 0.00 0.00 0.00 44 1011.7
20260506011400 47 185 2.0 2.0 0.00 0.00 0.00 43 1011.6
20260506010857 47 235 6.0 9.0 0.00 0.00 0.00 43 1011.5